DW6083 Weather Reports


Display with metric or nautical units.
time (UTC)temp
F
wind
direction
speed
MPH
gust
MPH
rain 1hr
in
rain 24hr
in
rain mn
in
humidity
%
barometer
mb
20260508080033 0 272 0.0 0.0 0.00 0.00 0.00 1013.8
20260508074529 0 272 0.0 0.0 0.00 0.00 0.00 1013.6
20260508073024 0 272 0.0 0.0 0.00 0.00 0.00 1013.6
20260508071520 0 272 0.0 0.0 0.00 0.00 0.00 1013.7
20260508070015 0 272 0.0 0.0 0.00 0.00 0.00 1013.6
20260508064537 0 272 0.0 0.0 0.00 0.00 0.00 1013.5
20260508063006 0 272 0.0 0.0 0.00 0.00 0.00 1013.4
20260508061504 0 272 0.0 0.0 0.00 0.00 0.00 1013.4
20260508060100 0 272 0.0 0.0 0.00 0.00 0.00 1013.3
20260508054620 0 272 0.0 0.0 0.00 0.00 0.00 1013.4
20260508053049 0 272 0.0 0.0 0.00 0.00 0.00 1013.4
20260508051546 0 272 0.0 0.0 0.00 0.00 0.00 1013.5
20260508050038 0 272 0.0 0.0 0.00 0.00 0.00 1013.4
20260508044531 0 272 0.0 0.0 0.00 0.00 0.00 1013.2
20260508043020 0 272 0.0 3.0 0.00 0.00 0.00 1013.2
20260508041514 0 271 1.0 3.0 0.00 0.00 0.00 1012.9
20260508040010 0 270 0.0 3.0 0.00 0.00 0.00 1012.8
20260508034516 0 270 0.0 2.0 0.00 0.00 0.00 1012.9
20260508033003 0 269 0.0 3.0 0.00 0.00 0.00 1013.0
20260508031605 0 269 0.0 4.0 0.00 0.00 0.00 1012.9
20260508030103 0 269 0.0 4.0 0.00 0.00 0.00 1012.6
20260508024548 0 268 1.0 3.0 0.00 0.00 0.00 1012.5
20260508023042 0 290 2.0 7.0 0.00 0.00 0.00 1012.2
20260508021541 0 246 2.0 6.0 0.00 0.00 0.00 1011.9
20260508020034 0 294 3.0 9.0 0.00 0.00 0.00 1011.8
20260508014531 0 314 3.0 10.0 0.00 0.00 0.00 1011.4
20260508013026 0 348 0.0 6.0 0.00 0.00 0.00 1011.1
20260508011523 0 347 2.0 8.0 0.00 0.00 0.00 1010.8
20260508010025 0 221 2.0 11.0 0.00 0.00 0.00 1010.2
20260508004520 70 247 1.0 9.0 0.00 0.00 0.00 30 1010.1
20260508003006 71 272 2.0 8.0 0.00 0.00 0.00 36 1009.7
20260508001502 72 257 1.0 8.0 0.00 0.00 0.00 40 1009.4
20260508000120 72 315 1.0 8.0 0.00 0.00 0.00 44 1009.3
20260507234554 73 257 2.0 9.0 0.00 0.00 0.00 48 1009.0
20260507233049 74 248 4.0 14.0 0.00 0.00 0.00 50 1008.7
20260507231546 74 246 2.0 9.0 0.00 0.00 0.00 51 1008.5
20260507230039 75 223 4.0 11.0 0.00 0.00 0.00 54 1008.6
20260507224535 75 267 5.0 17.0 0.00 0.00 0.00 55 1008.4
20260507223030 76 210 5.0 17.0 0.00 0.00 0.00 54 1008.3
20260507221526 77 236 6.0 15.0 0.00 0.00 0.00 55 1008.2
20260507220021 78 209 6.0 14.0 0.00 0.00 0.00 53 1008.2
20260507214524 78 231 6.0 13.0 0.00 0.00 0.00 53 1008.1
20260507213011 78 205 6.0 16.0 0.00 0.00 0.00 50 1007.8
20260507211508 78 263 7.0 16.0 0.00 0.00 0.00 49 1007.7
20260507210006 79 324 4.0 14.0 0.00 0.00 0.00 45 1007.8
20260507204559 79 265 3.0 11.0 0.00 0.00 0.00 31 1007.7
20260507203055 78 221 4.0 11.0 0.00 0.00 0.00 39 1008.1
20260507201552 78 236 4.0 12.0 0.00 0.00 0.00 36 1007.9
20260507200045 77 179 4.0 7.0 0.00 0.00 0.00 24 1008.1
20260507194541 77 284 0.0 0.0 0.00 0.00 0.00 24 1008.7
20260507193036 77 227 0.0 0.0 0.00 0.00 0.00 21 1008.6
20260507191532 76 227 0.0 0.0 0.00 0.00 0.00 1 1008.7
20260507190026 74 320 0.0 0.0 0.00 0.00 0.00 1 1008.8
20260507184522 74 263 0.0 0.0 0.00 0.00 0.00 1 1008.8
20260507183019 75 232 0.0 0.0 0.00 0.00 0.00 1 1008.8
20260507181516 74 305 0.0 0.0 0.00 0.00 0.00 1 1008.7
20260507180013 73 276 0.0 0.0 0.00 0.00 0.00 1 1008.7
20260507174513 71 205 0.0 0.0 0.00 0.00 0.00 1 1008.8
20260507173059 70 253 0.0 0.0 0.00 0.00 0.00 1 1008.8
20260507171610 70 203 0.0 0.0 0.00 0.00 0.00 1 1008.7
20260507170051 68 200 0.0 0.0 0.00 0.00 0.00 1 1008.5
20260507164552 68 203 0.0 0.0 0.00 0.00 0.00 1 1008.8
20260507163041 67 202 0.0 0.0 0.00 0.00 0.00 1 1009.2
20260507161542 67 202 0.0 0.0 0.00 0.00 0.00 1 1009.6
20260507160107 67 202 0.0 0.0 0.00 0.00 0.00 1 1009.6
20260507154536 67 234 0.0 0.0 0.00 0.00 0.00 1 1009.4
20260507153030 66 336 0.0 0.0 0.00 0.00 0.00 1 1009.7
20260507151525 66 336 0.0 0.0 0.00 0.00 0.00 1 1010.2
20260507150024 66 336 0.0 0.0 0.00 0.00 0.00 1 1009.2
20260507144519 65 336 0.0 0.0 0.00 0.00 0.00 1 1009.2
20260507143011 65 338 0.0 0.0 0.00 0.00 0.00 1 1009.7
20260507141507 65 338 0.0 0.0 0.00 0.00 0.00 1 1009.2
20260507140003 65 338 0.0 1.0 0.00 0.00 0.00 1 1009.9
20260507134610 65 338 1.0 5.0 0.00 0.00 0.00 1 1010.3
20260507133100 66 173 0.0 0.0 0.00 0.00 0.00 1 1009.4
20260507131613 66 173 0.0 0.0 0.00 0.00 0.00 1 1009.0
20260507130045 66 173 0.0 0.0 0.00 0.00 0.00 1 1009.2
20260507124550 66 174 0.0 0.0 0.00 0.00 0.00 1 1009.2
20260507123042 66 174 0.0 0.0 0.00 0.00 0.00 1 1009.3
20260507121531 66 174 0.0 0.0 0.00 0.00 0.00 1 1009.1
20260507120031 66 174 0.0 4.0 0.00 0.00 0.00 1 1009.0
20260507114525 66 173 5.0 7.0 0.00 0.00 0.00 1 1008.3
20260507113036 0 175 3.0 6.0 0.00 0.00 0.00 1008.0
20260507111513 0 166 4.0 8.0 0.00 0.00 0.00 1008.3
20260507110009 0 188 6.0 10.0 0.00 0.00 0.00 1008.8
20260507104505 0 174 6.0 11.0 0.00 0.00 0.00 1009.4
20260507103059 0 251 2.0 10.0 0.00 0.00 0.00 1009.5
20260507101557 0 161 6.0 11.0 0.00 0.00 0.00 1009.6
20260507100058 0 182 0.0 0.0 0.00 0.00 0.00 1009.8
20260507094548 0 180 0.0 0.0 0.00 0.00 0.00 1009.7
20260507093043 0 180 0.0 0.0 0.00 0.00 0.00 1009.6
20260507091542 0 180 0.0 0.0 0.00 0.00 0.00 1009.8
20260507090034 0 180 0.0 0.0 0.00 0.00 0.00 1010.3
20260507084545 0 180 0.0 0.0 0.00 0.00 0.00 1010.4
20260507083026 0 180 0.0 0.0 0.00 0.00 0.00 1010.3
20260507081521 0 180 0.0 0.0 0.00 0.00 0.00 1010.4